VE2JOS-13 Weather Reports


time (UTC)temp
C
wind
direction
speed
KPH
gust
KPH
rain 1hr
cm
rain 24hr
cm
rain mn
cm
humidity
%
barometer
mb
20260507233606 8 265 1.6 3.2 0.00 0.00 0.00 6
20260507231941 8 267 1.6 1.6 0.00 0.00 0.00 6
20260507230043 8 233 3.2 4.8 0.00 0.00 0.00 6
20260507224403 10 259 1.6 1.6 0.00 0.00 0.00 6
20260507222723 10 293 3.2 4.8 0.00 0.00 0.00 6
20260507221038 11 263 1.6 1.6 0.00 0.00 0.00 5
20260507215113 11 265 1.6 3.2 0.00 0.00 0.00 5
20260507213513 10 287 3.2 4.8 0.00 0.00 0.00 5
20260507211633 11 357 3.2 1.6 0.00 0.00 0.00 5
20260507205953 11 261 8.0 9.7 0.00 0.00 0.00 5
20260507204058 12 248 4.8 4.8 0.00 0.00 0.00 5
20260507202448 11 295 4.8 6.4 0.00 0.00 0.00 5
20260507200718 11 269 3.2 3.2 0.00 0.00 0.00 5
20260507194749 12 256 3.2 6.4 0.00 0.00 0.00 5
20260507192928 12 294 6.4 8.0 0.00 0.00 0.00 4
20260507191027 11 270 3.2 8.0 0.00 0.00 0.00 4
20260507190946 11 270 3.2 8.0 0.00 0.00 0.00 4
20260507185138 12 258 3.2 4.8 0.00 0.00 0.00 4
20260507183213 12 324 6.4 4.8 0.00 0.00 0.00 4
20260507181322 12 270 4.8 6.4 0.00 0.00 0.00 5
20260507175638 12 246 3.2 6.4 0.00 0.00 0.00 5
20260507173758 12 304 4.8 8.0 0.00 0.00 0.00 4
20260507172158 12 286 4.8 8.0 0.00 0.00 0.00 4
20260507170543 12 352 8.0 9.7 0.00 0.00 0.00 4
20260507164858 13 321 6.4 6.4 0.00 0.00 0.00 4
20260507163126 12 240 1.6 3.2 0.00 0.00 0.00 5
20260507161318 14 230 4.8 3.2 0.00 0.00 0.00 4
20260507155518 15 264 3.2 4.8 0.00 0.00 0.00 4
20260507153923 14 250 1.6 3.2 0.00 0.00 0.00 4
20260507152326 14 244 1.6 6.4 0.00 0.00 0.00 5
20260507150603 13 238 3.2 3.2 0.00 0.00 0.00 4
20260507144846 13 247 3.2 4.8 0.00 0.00 0.00 5
20260507142947 12 254 4.8 6.4 0.00 0.00 0.00 5
20260507140953 12 256 4.8 11.3 0.00 0.00 0.00 5
20260507135038 11 261 3.2 1.6 0.00 0.00 0.00 5
20260507133118 9 252 1.6 3.2 0.00 0.00 0.00 6
20260507131418 9 334 1.6 1.6 0.00 0.00 0.00 6
20260507125701 8 251 1.6 6.4 0.00 0.00 0.00 6
20260507123912 7 50 6.4 8.0 0.00 0.00 0.00 6
20260507122203 7 262 0.0 1.6 0.00 0.00 0.00 7
20260507120246 7 266 3.2 3.2 0.00 0.00 0.00 7
20260507114453 8 260 1.6 3.2 0.00 0.00 0.00 8
20260507112826 7 237 1.6 1.6 0.00 0.00 0.00 8
20260507111227 7 267 0.0 0.0 0.00 0.00 0.00 8
20260507105533 7 177 1.6 0.0 0.00 0.00 0.00 8
20260507103833 7 310 3.2 3.2 0.00 0.00 0.00 8
20260507102133 7 254 0.0 1.6 0.00 0.00 0.00 9
20260507100443 7 260 1.6 3.2 0.00 0.00 0.00 9
20260507094813 7 253 0.0 0.0 0.00 0.00 0.00 9
20260507093111 7 261 0.0 0.0 0.00 0.00 0.00 9
20260507091335 6 0 0.0 0.0 0.00 0.00 0.00 9
20260507085738 6 244 0.0 1.6 0.00 0.00 0.00 9
20260507083914 7 242 1.6 1.6 0.00 0.00 0.00 9
20260507082148 6 0 0.0 1.6 0.00 0.00 0.00 9
20260507080233 6 232 3.2 3.2 0.00 0.00 0.00 8
20260507074608 6 191 1.6 4.8 0.00 0.00 0.00 8
20260507072646 6 264 0.0 1.6 0.00 0.00 0.00 8
20260507070653 6 0 0.0 0.0 0.00 0.00 0.00 9
20260507064758 6 247 0.0 1.6 0.00 0.00 0.00 8
20260507062840 6 0 0.0 3.2 0.00 0.00 0.00 8
20260507060916 6 263 3.2 3.2 0.00 0.00 0.00 8
20260507055023 7 242 0.0 4.8 0.00 0.00 0.00 8
20260507053331 7 268 0.0 3.2 0.00 0.00 0.00 8
20260507051435 7 130 0.0 1.6 0.00 0.00 0.00 8
20260507045817 7 235 1.6 3.2 0.00 0.00 0.00 8
20260507043853 7 219 1.6 3.2 0.00 0.00 0.00 8
20260507042018 7 0 0.0 1.6 0.00 0.00 0.00 8
20260507034334 7 0 0.0 0.0 0.00 0.00 0.00 8
20260507032418 7 256 0.0 0.0 0.00 0.00 0.00 8
20260507030713 7 252 0.0 0.0 0.00 0.00 0.00 8
20260507025103 7 0 0.0 0.0 0.00 0.00 0.00 8
20260507023153 7 0 0.0 0.0 0.00 0.00 0.00 8
20260507021432 7 249 1.6 3.2 0.00 0.00 0.00 8
20260507021358 7 249 1.6 3.2 0.00 0.00 0.00 8
20260507015533 7 248 0.0 0.0 0.00 0.00 0.00 8
20260507013928 7 0 0.0 0.0 0.00 0.00 0.00 8
20260507012053 7 0 0.0 0.0 0.00 0.00 0.00 8
20260507010233 8 204 1.6 1.6 0.00 0.00 0.00 8
20260507004533 8 234 0.0 0.0 0.00 0.00 0.00 8
20260507002738 8 220 1.6 3.2 0.00 0.00 0.00 8
20260507001047 8 219 0.0 1.6 0.00 0.00 0.00 8
20260506235335 8 209 1.6 0.0 0.00 0.00 0.00 8